Weather History for Guthrie, OK

Change the Weather History Date:

Tuesday, January 22, 2013

  Actual Average Record
Temperature  
Mean Temperature 41 °F -  
Max Temperature 57 °F 50 °F 79 °F (1967)
Min Temperature 25 °F 28 °F 1 °F (1954)
Degree Days  
Heating Degree Days 24    
Moisture  
Dew Point 22 °F    
Average Humidity 49    
Maximum Humidity 69    
Minimum Humidity 28    
Precipitation  
Precipitation 0.00 in - - ()
Sea Level Pressure  
Sea Level Pressure 30.24 in    
Wind  
Wind Speed 5 mph (South)    
Max Wind Speed 13 mph    
Max Gust Speed 21 mph    
Visibility 10 miles    
Events      
Averages and records for this station are not official NWS values.
T = Trace of Precipitation, MM = Missing Value Source: NWS Daily Summary

Daily Weather History Graph

Daily Weather History Graph

Search for Another Location

Airport:

Trip Planner

Search our weather history database for the weather conditions in past years. The results will help you decide how hot, cold, wet, or windy it might be!

Date:

Astronomy

Jan. 22, 2013 Rise Set
Actual Time 7:36 AM CST 5:46 PM CST
Civil Twilight 7:08 AM CST 6:14 PM CST
Nautical Twilight 6:37 AM CST 6:45 PM CST
Astronomical Twilight 6:07 AM CST 7:15 PM CST
Moon 2:12 PM CST (1/22) 3:57 AM CST (1/22)
Length of Visible Light 11h 05m
Length of Day
10h 10m
Waxing Gibbous, 83% of the Moon is Illuminated
Jan 22
Waxing Gibbous
Jan 26
Full
Feb 3
Last Quarter
Feb 10
New
Feb 17
First Quarter

Hourly Weather History & Observations

Time (CST) Temp. Windchill Dew Point Humidity Pressure Visibility Wind Dir Wind Speed Gust Speed Precip Events Conditions
12:53 AM 28.0 °F - 14.0 °F 56% 30.32 in 10.0 mi Calm Calm - N/A   Clear
1:53 AM 28.0 °F 24.2 °F 15.1 °F 58% 30.31 in 10.0 mi ESE 3.5 mph - N/A   Clear
2:53 AM 28.0 °F 24.2 °F 15.1 °F 58% 30.30 in 10.0 mi SE 3.5 mph - N/A   Clear
3:53 AM 28.0 °F 20.8 °F 15.1 °F 58% 30.28 in 10.0 mi SE 6.9 mph - N/A   Clear
4:53 AM 28.0 °F 24.2 °F 15.1 °F 58% 30.28 in 10.0 mi SE 3.5 mph - N/A   Clear
5:53 AM 26.1 °F - 15.1 °F 63% 30.30 in 10.0 mi Calm Calm - N/A   Clear
6:53 AM 26.1 °F 20.5 °F 15.1 °F 63% 30.30 in 10.0 mi SE 4.6 mph - N/A   Clear
7:53 AM 25.0 °F 16.3 °F 16.0 °F 69% 30.29 in 10.0 mi SSE 8.1 mph - N/A   Clear
8:53 AM 30.9 °F 24.3 °F 17.1 °F 57% 30.29 in 10.0 mi SSE 6.9 mph - N/A   Clear
9:53 AM 39.0 °F 33.4 °F 17.1 °F 41% 30.29 in 10.0 mi South 8.1 mph - N/A   Clear
10:53 AM 44.1 °F 38.1 °F 19.0 °F 37% 30.27 in 10.0 mi South 11.5 mph - N/A   Clear
11:53 AM 50.0 °F - 19.9 °F 31% 30.25 in 10.0 mi SSW 12.7 mph - N/A   Clear
12:53 PM 52.0 °F - 21.9 °F 31% 30.22 in 10.0 mi SW 9.2 mph - N/A   Clear
1:53 PM 55.9 °F - 24.1 °F 29% 30.18 in 10.0 mi SW 9.2 mph 20.7 mph N/A   Clear
2:53 PM 57.9 °F - 25.0 °F 28% 30.16 in 10.0 mi SSW 11.5 mph - N/A   Clear
3:53 PM 57.9 °F - 25.0 °F 28% 30.15 in 10.0 mi SSW 11.5 mph - N/A   Clear
4:53 PM 57.9 °F - 27.0 °F 31% 30.17 in 10.0 mi SW 8.1 mph - N/A   Clear
5:53 PM 52.0 °F - 28.0 °F 40% 30.17 in 10.0 mi South 4.6 mph - N/A   Clear
6:53 PM 48.9 °F - 28.0 °F 44% 30.19 in 10.0 mi South 3.5 mph - N/A   Clear
7:53 PM 45.0 °F 41.8 °F 28.9 °F 53% 30.20 in 10.0 mi SSE 5.8 mph - N/A   Clear
8:53 PM 43.0 °F 39.5 °F 30.0 °F 60% 30.20 in 10.0 mi South 5.8 mph - N/A   Clear
9:53 PM 41.0 °F 37.1 °F 30.0 °F 65% 30.22 in 10.0 mi SSE 5.8 mph - N/A   Clear
10:53 PM 44.1 °F 40.8 °F 30.9 °F 60% 30.23 in 10.0 mi SSE 5.8 mph - N/A   Clear
11:53 PM 43.0 °F 39.5 °F 32.0 °F 65% 30.21 in 10.0 mi SSE 5.8 mph - N/A   Clear